This demonstration page uses our WeatherBlox Daily Observations layout. Learn more.

Left ArrowRight Arrow

39.92423, -83.80882

Hourly Observations for February 26, 2016

Temp ( °F °C ) Dew Point ( °F °C ) Humidity (%) Winds ( mph kmh ) Pressure ( in mb ) Visibility ( mi km ) Precip ( " mm )
12:56 am 00:56 Cloudy with Light Wintry Mix 28 -2.2 22 -5.5 78 78 WNW 17 28 30.12 1020 10 16 N/A
1:56 am 01:56 Cloudy with Light Wintry Mix 28 -2.2 21 -6.1 75 75 NW 14 22 30.14 1021 10 16 N/A
2:18 am 02:18 Cloudy 27 -3 19 -7 74 74 NW 16 26 30.21 1023 10 16 N/A
2:56 am 02:56 Cloudy 27 -2.7 19 -7.2 71 71 WNW 13 20 30.15 1021 10 16 N/A
3:56 am 03:56 Cloudy 26 -3.3 18 -7.7 72 72 WNW 8 13 30.16 1022 10 16 N/A
4:56 am 04:56 Cloudy 26 -3.3 18 -7.7 72 72 WNW 8 13 30.18 1022 10 16 N/A
5:56 am 05:56 Cloudy 27 -2.7 19 -7.2 71 71 WNW 8 13 30.20 1023 10 16 N/A
6:56 am 06:56 Cloudy 26 -3.3 21 -6.1 81 81 NW 7 11 30.22 1024 10 16 N/A
7:56 am 07:56 Cloudy 27 -2.7 21 -6.1 78 78 WNW 7 11 30.25 1024 10 16 N/A
8:56 am 08:56 Cloudy 27 -2.7 20 -6.6 75 75 WNW 8 13 30.27 1025 10 16 N/A
9:56 am 09:56 Cloudy 29 -1.6 19 -7.2 66 66 WNW 8 13 30.29 1026 10 16 N/A
10:56 am 10:56 Cloudy 29 -1.6 18 -7.7 64 64 NW 6 9 30.30 1026 10 16 N/A
11:56 am 11:56 Cloudy 31 -0.5 19 -7.2 61 61 NW 9 15 30.30 1026 10 16 N/A
12:56 pm 12:56 Cloudy 32 undefined 19 -7.2 59 59 W 13 20 30.28 1025 10 16 N/A
1:56 pm 13:56 Cloudy 33 0.5 19 -7.2 57 57 NW 10 17 30.26 1025 10 16 N/A
2:56 pm 14:56 Cloudy 33 0.5 21 -6.1 62 62 W 12 19 30.25 1024 10 16 N/A
3:56 pm 15:56 Cloudy 32 undefined 22 -5.5 67 67 WNW 7 11 30.25 1024 10 16 N/A
4:56 pm 16:56 Cloudy 32 undefined 23 -5 69 69 NW 6 9 30.24 1024 10 16 N/A
5:56 pm 17:56 Cloudy 32 undefined 23 -5 69 69 W 6 9 30.24 1024 10 16 N/A
6:56 pm 18:56 Cloudy 31 -0.5 23 -5 72 72 W 3 6 30.24 1024 10 16 N/A
7:56 pm 19:56 Cloudy 31 -0.5 24 -4.4 75 75 N N/A 30.23 1024 10 16 N/A
8:56 pm 20:56 Cloudy 30 -1.1 27 -2.7 89 89 N N/A 30.22 1023 10 16 N/A
9:56 pm 21:56 Cloudy 31 -0.5 27 -2.7 85 85 N N/A 30.21 1023 10 16 N/A
10:56 pm 22:56 Mostly Cloudy 31 -0.5 28 -2.2 88 88 SW 3 6 30.21 1023 10 16 N/A
11:56 pm 23:56 Cloudy 31 -0.5 25 -3.8 79 79 WNW 8 13 30.22 1023 10 16 N/A

Powered by AerisWeather